Regional Weather Roundup
Issued by NWS

Home | Current Version | Previous Version | Graphics & Text | Print | Product List | Glossary On
Versions: 1 2 3 4 5 6 7 8 9 10 11 12 13 14 15 16 17 18 19 20 21 22 23 24 25 26 27 28 29 30 31 32 33 34 35 36 37 38 39 40 41 42 43 44 45 46 47 48 49 50
000
ASUS43 KOAX 191310
RWRNE

WEATHER ROUNDUP FOR NEBRASKA
NATIONAL WEATHER SERVICE OMAHA NE
800 AM CDT SAT AUG 19 2017

NOTES: SATELLITE DATA IS BEING USED TO AUGMENT CLOUD COVER ABOVE
       12000 FEET.
       "FAIR" INDICATES FEW OR NO CLOUDS BELOW 12,000 FEET WITH NO
       SIGNIFICANT WEATHER AND/OR OBSTRUCTIONS TO VISIBILITY.


NEZ001>004-019>022-054>056-191400-
NEBRASKA PANHANDLE

CITY           SKY/WX    TMP DP  RH WIND       PRES   REMARKS
SCOTTSBLUFF    CLEAR     60  53  77 E6        29.98R
ALLIANCE       CLOUDY    60  54  80 SE9       29.96F
CHADRON        CLEAR     59  50  72 SW7       29.93R
GORDON         FAIR      63  54  72 N5        29.94S
KIMBALL        CLEAR     59  54  82 SW7       30.06F
SIDNEY         CLEAR     67  56  67 SW7       30.04R
$$

NEZ057>060-069>072-079>082-191400-
SOUTHWEST NEBRASKA

CITY           SKY/WX    TMP DP  RH WIND       PRES   REMARKS
NORTH PLATTE   SUNNY     58  57  97 E7        30.00F FOG
IMPERIAL       SUNNY     64  56  75 S7        30.01F
LEXINGTON      SUNNY     63  60  90 SE3       30.00F
MCCOOK         SUNNY     59  57  93 NE6       29.99F
OGALLALA       CLEAR     60  57  89 SW6       30.00S
$$

NEZ005>010-023>029-035>040-094-191400-
NORTH CENTRAL NEBRASKA

CITY           SKY/WX    TMP DP  RH WIND       PRES   REMARKS
VALENTINE      SUNNY     67  54  63 S8        29.95F
AINSWORTH      SUNNY     63  58  86 S9        29.97F
BROKEN BOW     SUNNY     60  57  89 CALM      30.00S
O`NEILL        SUNNY     60  59  97 S3        29.98S
ORD            SUNNY     59  56  89 CALM      29.98S
THEDFORD       SUNNY     62  58  84 SE5       29.99F
$$

NEZ041-046>049-061>064-073>077-083>087-191400-
SOUTH CENTRAL NEBRASKA

CITY           SKY/WX    TMP DP  RH WIND       PRES   REMARKS
GRAND ISLAND   SUNNY     63  61  93 SE7       29.99F
AURORA         SUNNY     62  60  94 S5        30.00S
HASTINGS       SUNNY     66  60  81 SE7       30.00F
HEBRON         SUNNY     63  61  94 CALM      29.99F
HOLDREGE       SUNNY     61  58  90 CALM      30.00F
KEARNEY        SUNNY     63  60  90 S3        30.01R
YORK           SUNNY     63  61  94 CALM      30.00S
$$

NEZ011>018-030>034-042>045-191400-
NORTHEAST NEBRASKA

CITY           SKY/WX    TMP DP  RH WIND       PRES   REMARKS
NORFOLK        SUNNY     59  57  93 CALM      29.98S
ALBION         SUNNY     58  57  96 CALM      29.99F
BLAIR          SUNNY     60  58  94 S3        29.99R FOG
COLUMBUS       SUNNY     59  58  96 CALM      30.00R
FREMONT        SUNNY     61  59  93 CALM      29.99S
TEKAMAH        SUNNY     61  58  90 CALM      29.98R
WAYNE          SUNNY     55  53  91 CALM      29.98S
$$

NEZ050>053-065>068-078-088>093-191400-
SOUTHEAST NEBRASKA

CITY           SKY/WX    TMP DP  RH WIND       PRES   REMARKS
LINCOLN        SUNNY     64  59  83 CALM      30.00R
OMAHA EPPLEY   SUNNY     63  58  83 NW3       29.98R
BEATRICE       SUNNY     64  61  91 CALM      30.00R
FALLS CITY     SUNNY     66  64  93 NW3       29.97R
NEBRASKA CITY  SUNNY     65  65 100 CALM      29.99R
PLATTSMOUTH    SUNNY     62  60  93 CALM      29.98R
$$

NEZ044-045-051>053-067-191400-
OMAHA AREA

CITY           SKY/WX    TMP DP  RH WIND       PRES   REMARKS
OMAHA EPPLEY   SUNNY     63  58  83 NW3       29.98R
BLAIR          SUNNY     60  58  94 S3        29.99R FOG
FREMONT        SUNNY     61  59  93 CALM      29.99S
MILLARD        SUNNY     65  61  87 NW3       29.98S
OFFUTT AFB     SUNNY     61  60  94 NW3       29.98R
PLATTSMOUTH    SUNNY     62  60  93 CALM      29.98R
WAHOO          FAIR      61  60  97 CALM      30.00R
$$



USA.gov is the U.S. government's official web portal to all federal, state and local government web resources and services.